Location: Nuoro
(40.3167°N, 9.3500°E)
Time: 22:40:10
(UTC+00:00)

Daily predictions for brighter satellites

Satellite Brightness Start Highest point End
(mag) Time Altitude Azimuth Time Altitude Azimuth Time Altitude Azimuth
Centaur D AC-29 3.5 19:03:23 10° SW 19:07:41 28° SSE 19:20:13 10° E
Cosmos 1697 Rocket 2.9 19:18:59 10° NNW 19:24:36 78° WSW 19:30:11 10° SSE
Cosmos 2251 Rocket 3.5 19:22:22 10° S 19:27:34 69° ESE 19:32:52 10° NNE
COSMOS 2406 3.4 19:25:11 10° S 19:30:44 52° ESE 19:36:19 10° NNE
Cosmos 1975 3.0 19:27:08 10° NNW 19:31:00 74° W 19:34:51 10° S
Cosmos 1842 4.0 19:30:11 10° SSE 19:33:24 30° E 19:36:37 10° NNE
CSL-04 Rocket 3.8 19:28:41 10° S 19:33:57 77° WSW 19:39:17 10° NNW
Cosmos 1328 Rocket 3.6 19:33:13 10° S 19:37:29 81° W 19:41:48 10° N
Cosmos 2322 Rocket 4.4 19:38:24 10° NNE 19:40:25 12° NE 19:42:26 10° ENE
Cosmos 1980 Rocket 2.3 19:35:45 10° NNW 19:41:26 68° ENE 19:47:04 10° SSE
Cosmos 407 Rocket 3.7 19:37:13 10° SSW 19:42:27 77° WNW 19:47:38 10° NNE
ARGOS Delta rocket 4.4 19:39:29 10° SE 19:43:40 37° ENE 19:47:44 10° N
CZ-4C R/B 3.5 19:44:31 10° NNE 19:48:37 59° E 19:52:40 10° S
MOS 1-B Rocket 4.3 19:42:39 10° S 19:49:03 68° WSW 19:54:47 10° NNW
Okean-O 2.6 19:45:43 10° SSE 19:50:05 75° ENE 19:54:31 10° N
Genesis I 3.7 19:47:48 10° SW 19:51:14 55° NW 19:54:43 10° NNE
Cosmos 1092 Rocket 4.3 19:47:20 10° SSW 19:53:39 74° W 20:00:02 10° N
Cosmos 540 Rocket 4.1 19:52:56 10° N 19:57:49 41° ENE 20:01:44 15° SE
Cosmos 1954 Rocket 4.1 19:52:47 10° S 19:57:57 57° ESE 20:03:07 10° NNE
USA 245 4.3 19:56:51 15° ESE 19:58:50 27° ENE 20:02:07 10° N
Cosmos 1400 Rocket 4.3 20:00:07 15° ESE 20:01:43 19° E 20:04:31 10° NE
Terra 2.6 19:59:05 15° SE 20:02:31 35° ENE 20:06:47 10° N
Tiangong -2.1 19:59:30 10° W 20:02:40 78° N 20:05:19 14° E
Cosmos 1707 2.6 20:02:06 10° S 20:05:38 60° E 20:09:12 10° NNE
Cosmos 1515 Rocket 3.5 20:02:09 10° S 20:06:27 87° W 20:10:48 10° N
Cosmos 676 Rocket 4.1 20:02:08 10° S 20:07:18 56° ESE 20:12:31 10° NNE
SL-4 R/B 4.2 20:05:10 10° WNW 20:08:21 25° NNW 20:11:43 10° NE
Cosmos 1190 Rocket 4.2 20:05:54 10° SSW 20:11:12 80° WNW 20:16:32 10° NNE
Cosmos 1633 Rocket 4.3 20:07:52 10° NNW 20:12:00 41° W 20:16:05 10° SSW
Okean O Rocket 3.3 20:10:05 10° SSW 20:13:57 30° W 20:17:51 10° NW
ATLAS CENTAUR R/B 3.3 20:17:20 10° E 20:17:20 10° E 20:17:26 10° E
SeaSat 1 2.6 20:12:15 18° SE 20:15:53 66° ENE 20:20:47 10° NNW
Cosmos 1766 4.3 20:15:57 10° NNW 20:19:31 42° W 20:23:02 10° SSW
EXPRESS MD2 4.1 20:16:32 10° W 20:19:37 35° NNW 20:21:49 10° NE
USA 234 3.7 20:17:12 10° NE 20:23:41 68° NW 20:30:08 10° WSW
Cosmos 1470 Rocket 4.3 20:19:49 10° NNW 20:24:02 49° W 20:28:11 10° SSW
Cosmos 1869 Rocket 4.0 20:22:34 10° N 20:26:53 48° E 20:29:11 25° SE
IRS-1A Rocket 4.2 20:23:22 16° SSE 20:27:51 87° WSW 20:33:22 10° NNW
MOS 1 Rocket 3.9 20:26:39 21° SE 20:30:07 56° ENE 20:35:21 10° N
Cosmos 2360 Rocket 3.8 20:28:32 10° N 20:32:52 22° NE 20:36:22 13° E
ERS-1 Rocket 2.9 20:33:11 20° SSE 20:36:40 88° WSW 20:41:43 10° NNW
Cosmos 2333 Rocket 3.9 20:33:12 10° N 20:37:39 22° NE 20:41:09 13° E
Cosmos 841 Rocket 4.2 20:33:05 10° N 20:38:05 41° ENE 20:40:43 24° ESE
Atlas Centaur 2 3.4 20:30:57 10° WSW 20:38:35 42° S 20:43:36 21° ESE
Resurs 01 Rocket 4.3 20:36:52 10° WSW 20:38:53 13° W 20:40:54 10° WNW
Cosmos 1441 Rocket 2.9 20:36:46 10° N 20:40:23 88° E 20:41:54 33° S
In-Cosmos 22 4.1 20:35:32 12° S 20:40:49 84° E 20:46:24 10° N
SL-16 R/B 2.7 20:35:23 10° NNW 20:40:53 48° ENE 20:43:56 25° SE
Spot 2 Rocket 3.5 20:38:14 25° SSE 20:41:15 76° ENE 20:46:20 10° N
Cosmos 2082 Rocket 3.9 20:36:43 10° WSW 20:41:53 34° WNW 20:47:03 10° N
Cosmos 1763 Rocket 4.0 20:37:02 10° NNW 20:42:09 55° WSW 20:45:43 19° S
Cosmos 2369 4.4 20:36:53 10° NNW 20:42:24 51° WSW 20:46:32 18° S
SL-14 R/B 3.9 20:42:15 32° ESE 20:42:57 35° E 20:46:26 10° NNE
RESURS DK-1 3.8 20:40:39 10° N 20:44:04 25° ENE 20:45:34 20° E
Timation 1 Rocket 4.3 20:38:47 10° S 20:44:31 61° ESE 20:50:24 10° NNE
SPOT 5 3.7 20:42:41 14° SSW 20:46:05 38° W 20:50:09 10° NNW
Cosmos 1933 Rocket 4.2 20:44:02 10° NNW 20:48:21 54° W 20:51:18 19° SSW
Cosmos 1470 3.7 20:45:25 10° NNW 20:48:54 40° W 20:51:09 19° SSW
Cosmos 1417 Rocket 4.4 20:43:12 10° N 20:49:25 89° E 20:53:26 23° S
Cosmos 1300 3.4 20:49:16 10° NNE 20:52:31 33° ENE 20:52:53 32° E
Cosmos 1908 3.8 20:52:37 10° NNW 20:56:07 48° W 20:57:42 27° SSW
Cosmos 1862 Rocket 4.2 20:55:44 34° ESE 20:56:35 38° E 21:00:40 10° NNE
Cosmos 1346 Rocket 3.5 20:57:32 10° N 21:01:06 34° ENE 21:01:35 33° E
ATLAS 2AS CENTAUR R/B 3.7 20:57:19 10° NNW 21:03:34 36° NE 21:07:52 18° E
Meteor 1-22 Rocket 4.2 20:59:45 10° N 21:05:25 86° W 21:08:26 30° S
Ariane Rocket 3.2 21:03:07 28° S 21:05:47 67° WSW 21:10:52 10° NNW
Meteor 1-4 Rocket 4.3 21:09:49 16° NE 21:09:49 16° NE 21:10:50 10° NE
Cosmos 1356 Rocket 3.3 21:09:22 48° SSE 21:10:25 71° E 21:14:37 10° NNE
Cosmos 1758 3.2 21:08:23 10° N 21:12:17 69° E 21:12:54 57° SE
SPOT 3 Rocket 3.8 21:12:14 30° S 21:14:44 61° W 21:19:51 10° NNW
Cosmos 1850 Rocket 3.9 21:13:25 26° SSW 21:16:28 88° E 21:21:42 10° NNE
Cosmos 807 4.4 21:16:39 69° E 21:16:39 69° E 21:19:49 10° NNE
Cosmos 1707 Rocket 3.5 21:16:09 45° S 21:17:28 82° E 21:21:57 10° N
ARIANE 5 R/B 4.0 21:17:31 23° E 21:18:16 24° ENE 21:21:46 10° NNE
SL-27 R/B 3.5 21:19:34 28° NNE 21:19:34 28° NNE 21:21:03 10° NNE
Meteor 1-21 4.2 21:21:07 34° S 21:23:44 81° E 21:29:34 10° NNE
Okean 2 4.3 21:24:44 32° ENE 21:24:44 32° ENE 21:27:56 10° NNE
Cosmos 1980 Rocket 4.5 21:21:27 10° WNW 21:24:45 16° W 21:28:02 10° SW
S3M 4.5 21:19:12 10° NNW 21:25:26 57° W 21:29:06 25° SSW
Cosmos 2322 Rocket 2.2 21:19:50 10° NNW 21:25:31 70° ENE 21:27:28 42° SE
Cosmos 1655 Rocket 4.2 21:22:56 23° SSW 21:27:10 72° W 21:33:35 10° N
SJ 16-02 1.4 21:28:53 54° ESE 21:28:56 54° ESE 21:33:09 10° NNE
Landsat 5 4.1 21:29:35 10° N 21:33:29 51° WNW 21:35:02 32° SW
Cosmos 2278 4.3 21:28:50 10° NW 21:34:18 47° WSW 21:36:25 32° SSW
Cosmos 1741 Rocket 4.3 21:31:50 24° SSW 21:35:01 67° WNW 21:40:19 10° NNE
USA 281 3.6 21:32:45 31° ESE 21:35:40 52° ENE 21:42:00 10° NNW
MetOp-A 4.1 21:37:25 45° S 21:38:57 70° WSW 21:44:14 10° NNW
Tiangong 0.2 21:36:25 10° W 21:37:28 18° W 21:37:28 18° W
Okean 3 3.3 21:39:26 71° SSW 21:39:51 85° W 21:44:02 10° N
Terra 3.6 21:37:47 16° SW 21:40:09 23° W 21:43:54 10° NW
Cosmos 968 Rocket 3.5 21:41:02 38° SSW 21:43:03 78° WNW 21:48:15 10° NNE
Cosmos 1733 Rocket 3.2 21:39:12 10° NNW 21:43:34 67° W 21:44:16 56° SW
GP-B 3.8 21:40:44 10° NNE 21:44:46 39° E 21:44:46 39° E
Cosmos 2228 Rocket 4.2 21:44:42 27° SW 21:46:39 41° WNW 21:50:59 10° N
Cosmos 1814 Rocket 4.2 21:43:39 10° NNW 21:48:54 60° ENE 21:50:00 49° ESE
Cosmos 1315 Rocket 2.9 21:51:04 66° NE 21:51:04 66° NE 21:54:41 10° NNE
ATLAS CENTAUR R/B 2.2 21:52:14 33° W 21:53:02 39° NW 21:56:24 10° NNE
Meteor 2-20 Rocket 4.4 21:46:47 10° N 21:53:06 79° E 21:54:48 50° SSE
Nadezhda 2 Rocket 4.5 21:51:37 44° S 21:53:50 82° E 22:00:18 10° N
Cosmos 2219 Rocket 2.8 21:48:44 10° NNW 21:54:13 47° ENE 21:55:47 38° ESE
Cosmos 1908 Rocket 4.0 21:50:44 10° N 21:54:53 48° ENE 21:54:53 48° ENE
Cosmos 1244 Rocket 4.4 21:52:52 44° S 21:55:01 88° E 22:01:20 10° N
H-2A R/B 3.4 21:59:30 37° ENE 21:59:35 37° ENE 22:03:33 10° N
Cosmos 1953 2.7 21:57:35 10° N 22:00:51 55° NE 22:00:51 55° NE
Cosmos 1455 3.0 22:01:08 10° N 22:03:41 42° NNE 22:03:41 42° NNE
Okean 1-7 3.0 22:04:58 73° WSW 22:05:07 74° W 22:09:28 10° N
CZ-4C R/B 3.8 22:11:44 15° ENE 22:11:44 15° ENE 22:13:14 10° ENE
BREEZE-M DEB (TANK) 3.4 22:07:29 10° NW 22:09:09 45° NW 22:09:09 45° NW
CZ-2C R/B 3.8 22:06:47 10° N 22:11:09 65° WNW 22:11:36 61° WSW
ALOS 2 3.8 22:11:53 30° ENE 22:12:01 30° ENE 22:15:52 10° N
Cosmos 2360 Rocket 2.4 22:11:41 10° NNW 22:17:14 57° WSW 22:18:06 52° SW
Cosmos 1709 Rocket 4.4 22:20:20 43° ESE 22:21:23 47° E 22:27:26 10° NNE
RESURS DK-1 4.0 22:18:19 10° NW 22:21:10 25° W 22:21:10 25° W
Cosmos 2333 Rocket 2.4 22:16:40 10° NNW 22:22:18 58° WSW 22:23:08 52° SW
SL-16 R/B 3.7 22:20:14 10° NW 22:24:35 23° W 22:25:47 21° WSW
H-2A R/B 4.2 22:21:58 10° NE 22:23:29 15° ENE 22:23:29 15° ENE
Atlas Centaur 2 3.8 22:20:01 10° WSW 22:25:49 32° SW 22:25:49 32° SW
Cosmos 1703 Rocket 3.9 22:32:44 57° W 22:32:46 57° W 22:37:11 10° N
Cosmos 2242 Rocket 4.2 22:36:20 50° ENE 22:36:20 50° ENE 22:40:14 10° NNE
Cosmos 1486 Rocket 4.4 22:38:07 49° E 22:38:07 49° E 22:42:45 10° NNE
DNEPR-1 R/B 4.0 22:32:51 10° NNW 22:39:19 88° ENE 22:39:56 72° SE
Meteor 1-24 Rocket 4.4 22:39:51 41° ESE 22:40:14 42° E 22:45:35 10° NNE
Cosmos 839 Rocket 4.0 22:40:17 10° NW 22:46:51 66° WSW 22:47:42 59° SSW
BlueWalker 3 3.8 22:50:03 23° NE 22:50:03 23° NE 22:51:36 10° NE
Cosmos 2322 3.6 22:43:07 10° NNW 22:48:49 76° ENE 22:49:30 67° ESE
Cosmos 2237 Rocket 3.9 22:45:09 10° N 22:49:51 26° NE 22:52:21 19° E
Cosmos 2227 Rocket 3.8 22:53:35 20° E 22:53:35 20° E 22:57:10 10° NE
ARIANE 5 R/B 4.0 22:54:59 27° W 22:54:59 27° W 22:58:16 10° NW
ATLAS 2AS CENTAUR R/B 2.9 22:48:10 10° NW 22:54:35 48° WSW 22:55:16 46° SW
Cosmos 304 Rocket 4.5 22:55:49 43° ENE 22:55:49 43° ENE 22:59:34 10° NNE
SL-24 R/B - RUBIN 2 4.2 22:54:14 10° NW 23:00:48 76° WSW 23:01:28 68° S
Meteor 2-5 Rocket 3.8 23:03:32 64° SE 23:04:04 68° E 23:09:56 10° NNE
Cosmos 1703 4.4 23:06:48 38° NNE 23:06:48 38° NNE 23:09:11 10° N
Cosmos 1745 Rocket 4.5 23:05:11 43° WSW 23:06:47 53° W 23:13:00 10° N
SJ 16-02 3.9 23:05:36 11° W 23:07:38 14° WNW 23:09:53 10° NNW
Cosmos 2322 Rocket 4.2 23:05:40 10° WNW 23:08:52 15° W 23:09:15 15° WSW
Cosmos 1570 Rocket 4.1 23:04:06 10° NNW 23:09:22 64° WSW 23:09:22 64° WSW
COSMOS 2455 2.7 23:08:59 71° SSW 23:09:42 87° ESE 23:15:46 10° NNE
PSLV R/B 4.0 23:05:32 10° NNE 23:08:58 58° NNE 23:08:58 58° NNE
Cosmos 2297 Rocket 2.2 23:13:10 61° ESE 23:13:10 61° ESE 23:18:44 10° NNE
USA 281 4.2 23:19:37 28° WSW 23:20:21 29° WSW 23:25:57 10° NW
Cosmos 2181 Rocket 4.1 23:15:00 10° N 23:21:08 62° E 23:22:13 53° SE
SL-4 R/B 4.2 23:24:31 10° NW 23:28:03 26° NNE 23:31:42 10° ENE
COSMOS 2428 2.7 23:22:29 10° NNW 23:28:06 65° WSW 23:28:13 65° WSW
GEOS 3 Rocket 3.5 23:25:51 10° NNE 23:31:00 77° NW 23:31:28 71° WSW
Cosmos 2074 Rocket 4.1 23:33:38 53° SE 23:34:34 59° E 23:40:40 10° NNE
Cosmos 1892 4.2 23:38:13 31° NNE 23:38:13 31° NNE 23:40:13 10° NNE
CZ-3 Stage 3 4.2 23:19:51 10° W 23:37:06 34° SW 23:37:06 34° SW
Cosmos 2219 Rocket 3.7 23:33:23 10° NW 23:37:28 24° W 23:37:28 24° W
Cosmos 371 Rocket 3.8 23:39:00 50° WNW 23:39:06 50° WNW 23:43:47 10° N
ALOS 2 4.4 23:49:16 22° WNW 23:49:16 22° WNW 23:51:52 10° NW
Cosmos 773 Rocket 3.9 23:44:51 10° NNW 23:49:51 75° W 23:49:51 75° W
Cosmos 2151 Rocket 3.8 23:46:15 10° N 23:50:03 66° N 23:50:03 66° N
Cosmos 2263 Rocket 3.7 23:50:27 23° ESE 23:50:48 23° E 23:55:05 10° NE
Cosmos 1503 Rocket 4.3 23:51:55 52° W 23:52:30 55° WNW 23:57:44 10° N
